CCA721 ZULS-VQPR

Flight info

Callsign CCA721
Flight time 1h 19m
Altitude 37100
Route IKUBI B345 NONIM/N0458F371 B345 TUMLI G348 SUBSU
Aircraft B737/M-SDE2E3FGHIRWXY/LB1

Departure

Time 2026-04-19 01:37
Airport Lhasa Gonggar International Airport (ZULS)

Arrival

Time 2026-04-19 02:56
Airport Paro International Airport (VQPR)
Time Latitude Longitude Altitude Speed Heading
2026-04-19 01:10 29.29374 90.89370 11606 ft 0 kts 180°
2026-04-19 01:29 29.29389 90.89370 11601 ft 4 kts 180°
2026-04-19 01:29 29.29415 90.89370 11600 ft 3 kts 180°
2026-04-19 01:29 29.29439 90.89374 11598 ft 4 kts 216°
2026-04-19 01:29 29.29450 90.89395 11592 ft 4 kts 273°
2026-04-19 01:30 29.29447 90.89425 11605 ft 3 kts 270°
2026-04-19 01:30 29.29447 90.89430 11605 ft 0 kts 269°
2026-04-19 01:33 29.29447 90.89427 11609 ft 1 kts 269°
2026-04-19 01:33 29.29447 90.89404 11601 ft 4 kts 269°
2026-04-19 01:33 29.29446 90.89357 11607 ft 7 kts 269°
2026-04-19 01:33 29.29445 90.89288 11607 ft 10 kts 269°
2026-04-19 01:34 29.29466 90.89216 11600 ft 10 kts 317°
2026-04-19 01:34 29.29529 90.89196 11601 ft 10 kts 359°
2026-04-19 01:34 29.29594 90.89196 11601 ft 9 kts 359°
2026-04-19 01:34 29.29659 90.89195 11600 ft 9 kts 359°
2026-04-19 01:35 29.29721 90.89195 11595 ft 9 kts
2026-04-19 01:35 29.29773 90.89218 11598 ft 9 kts 63°
2026-04-19 01:35 29.29778 90.89269 11603 ft 0 kts 89°
2026-04-19 01:36 29.29780 90.89419 11608 ft 49 kts 89°
2026-04-19 01:36 29.29789 90.90048 11610 ft 108 kts 89°
2026-04-19 01:36 29.29806 90.91114 11606 ft 158 kts 89°
2026-04-19 01:37 29.29819 90.92508 11698 ft 190 kts 90°
2026-04-19 01:37 29.29811 90.94025 12304 ft 194 kts 91°
2026-04-19 01:37 29.29778 90.95576 13027 ft 196 kts 91°
2026-04-19 01:37 29.29734 90.97146 13569 ft 199 kts 92°
2026-04-19 01:38 29.29692 90.98726 14089 ft 199 kts 92°
2026-04-19 01:38 29.29658 91.00331 14550 ft 203 kts 91°
2026-04-19 01:38 29.29657 91.01968 14927 ft 212 kts 90°
2026-04-19 01:38 29.29663 91.03741 15070 ft 233 kts 90°
2026-04-19 01:39 29.29667 91.05687 15223 ft 255 kts 90°
2026-04-19 01:39 29.29671 91.07814 15382 ft 279 kts 90°
2026-04-19 01:39 29.29674 91.10128 15713 ft 298 kts 90°
2026-04-19 01:39 29.29676 91.12495 16396 ft 303 kts 90°
2026-04-19 01:40 29.29677 91.14920 17182 ft 306 kts 90°
2026-04-19 01:40 29.29337 91.17333 17828 ft 312 kts 116°
2026-04-19 01:40 29.27990 91.19256 18503 ft 314 kts 146°
2026-04-19 01:40 29.26024 91.20292 19165 ft 313 kts 170°
2026-04-19 01:41 29.23864 91.20392 19825 ft 312 kts 192°
2026-04-19 01:41 29.21841 91.19525 20447 ft 314 kts 215°
2026-04-19 01:41 29.20295 91.17784 21131 ft 314 kts 239°
2026-04-19 01:41 29.19525 91.15467 21831 ft 314 kts 263°
2026-04-19 01:42 29.19666 91.13018 22508 ft 317 kts 287°
2026-04-19 01:42 29.20660 91.10768 23213 ft 321 kts 306°
2026-04-19 01:42 29.23732 91.06997 24438 ft 327 kts 312°
2026-04-19 01:43 29.25321 91.05124 25036 ft 328 kts 311°
2026-04-19 01:43 29.26891 91.03232 25678 ft 328 kts 310°
2026-04-19 01:43 29.28439 91.01302 26243 ft 330 kts 304°
2026-04-19 01:43 29.29498 90.98995 26722 ft 330 kts 287°
2026-04-19 01:44 29.29900 90.96345 26805 ft 346 kts 273°
2026-04-19 01:44 29.30037 90.93530 26925 ft 363 kts 272°
2026-04-19 01:44 29.30132 90.90579 27036 ft 378 kts 271°
2026-04-19 01:44 29.30220 90.87553 27132 ft 392 kts 271°
2026-04-19 01:45 29.30318 90.84377 27221 ft 406 kts 271°
2026-04-19 01:45 29.30428 90.81095 27300 ft 418 kts 272°
2026-04-19 01:45 29.30550 90.77727 27371 ft 429 kts 272°
2026-04-19 01:45 29.30679 90.74272 27445 ft 438 kts 272°
2026-04-19 01:46 29.30814 90.70753 27495 ft 447 kts 272°
2026-04-19 01:46 29.30952 90.67176 27662 ft 451 kts 272°
2026-04-19 01:46 29.31089 90.63580 27985 ft 452 kts 272°
2026-04-19 01:46 29.31225 90.60032 28318 ft 452 kts 272°
2026-04-19 01:47 29.31360 90.56436 28629 ft 452 kts 272°
2026-04-19 01:47 29.31495 90.52835 28944 ft 452 kts 272°
2026-04-19 01:47 29.31628 90.49247 29368 ft 450 kts 272°
2026-04-19 01:47 29.31759 90.45678 29868 ft 446 kts 272°
2026-04-19 01:48 29.31888 90.42140 30338 ft 444 kts 272°
2026-04-19 01:48 29.32017 90.38607 30729 ft 443 kts 272°
2026-04-19 01:48 29.32143 90.35094 31237 ft 438 kts 272°
2026-04-19 01:48 29.32267 90.31629 31815 ft 433 kts 272°
2026-04-19 01:49 29.32387 90.28235 32313 ft 430 kts 272°
2026-04-19 01:49 29.32508 90.24820 32720 ft 429 kts 271°
2026-04-19 01:49 29.32627 90.21406 33042 ft 429 kts 271°
2026-04-19 01:49 29.32746 90.17983 33348 ft 430 kts 271°
2026-04-19 01:50 29.32861 90.14572 33711 ft 428 kts 271°
2026-04-19 01:50 29.32975 90.11162 34105 ft 427 kts 271°
2026-04-19 01:50 29.33086 90.07773 34431 ft 425 kts 271°
2026-04-19 01:50 29.33196 90.04393 34749 ft 424 kts 271°
2026-04-19 01:51 29.33306 90.01022 35067 ft 422 kts 271°
2026-04-19 01:51 29.33413 89.97718 35389 ft 420 kts 271°
2026-04-19 01:51 29.33520 89.94380 35747 ft 418 kts 272°
2026-04-19 01:51 29.33626 89.91060 36094 ft 417 kts 271°
2026-04-19 01:52 29.33731 89.87739 36427 ft 414 kts 271°
2026-04-19 01:52 29.33833 89.84461 36762 ft 412 kts 271°
2026-04-19 01:52 29.33935 89.81189 37002 ft 409 kts 271°
2026-04-19 01:52 29.34036 89.77940 37164 ft 406 kts 271°
2026-04-19 01:53 29.34134 89.74720 37293 ft 403 kts 271°
2026-04-19 01:53 29.34328 89.68290 37229 ft 402 kts 272°
2026-04-19 01:54 29.34518 89.61953 37243 ft 399 kts 271°
2026-04-19 01:54 29.34703 89.55623 37239 ft 396 kts 271°
2026-04-19 01:55 29.34885 89.49329 37227 ft 394 kts 271°
2026-04-19 01:55 29.35063 89.43062 37232 ft 393 kts 271°
2026-04-19 01:56 29.35238 89.36802 37226 ft 393 kts 271°
2026-04-19 01:56 29.35241 89.30568 37201 ft 395 kts 260°
2026-04-19 01:57 29.33283 89.24669 37226 ft 402 kts 241°
2026-04-19 01:57 29.29622 89.19731 37209 ft 410 kts 231°
2026-04-19 01:58 29.26347 89.15787 37217 ft 412 kts 231°
2026-04-19 01:58 29.21758 89.10238 37213 ft 412 kts 231°
2026-04-19 01:59 29.17851 89.05464 37210 ft 410 kts 231°
2026-04-19 01:59 29.14622 89.01502 37215 ft 409 kts 231°
2026-04-19 02:00 29.10743 88.96741 37209 ft 409 kts 231°
2026-04-19 02:00 29.06222 88.91198 37209 ft 407 kts 231°
2026-04-19 02:01 29.03022 88.87282 37212 ft 403 kts 231°
2026-04-19 02:01 28.99196 88.82598 37193 ft 401 kts 231°
2026-04-19 02:02 28.94767 88.77188 37180 ft 402 kts 231°
2026-04-19 02:02 28.91595 88.73320 37201 ft 401 kts 231°
2026-04-19 02:03 28.87155 88.67911 37219 ft 402 kts 231°
2026-04-19 02:03 28.83323 88.63244 37219 ft 404 kts 231°
2026-04-19 02:04 28.80117 88.59345 37217 ft 407 kts 231°
2026-04-19 02:04 28.76246 88.54643 37243 ft 407 kts 231°
2026-04-19 02:05 28.72365 88.49937 37240 ft 408 kts 231°
2026-04-19 02:05 28.68480 88.45231 37258 ft 408 kts 231°
2026-04-19 02:06 28.64622 88.40562 37240 ft 406 kts 231°
2026-04-19 02:06 28.60757 88.35891 37241 ft 404 kts 231°
2026-04-19 02:07 28.56918 88.31254 37287 ft 401 kts 231°
2026-04-19 02:07 28.53091 88.26638 37267 ft 401 kts 231°
2026-04-19 02:08 28.49291 88.22060 37269 ft 400 kts 231°
2026-04-19 02:08 28.45470 88.17460 37273 ft 399 kts 231°
2026-04-19 02:09 28.41653 88.12869 37261 ft 400 kts 231°
2026-04-19 02:09 28.37820 88.08266 37256 ft 402 kts 231°
2026-04-19 02:10 28.33999 88.03683 37276 ft 403 kts 231°
2026-04-19 02:10 28.30131 87.99047 37283 ft 405 kts 230°
2026-04-19 02:11 28.26242 87.94389 37245 ft 406 kts 230°
2026-04-19 02:11 28.22361 87.89750 37253 ft 405 kts 231°
2026-04-19 02:12 28.18514 87.85151 37249 ft 405 kts 231°
2026-04-19 02:12 28.14643 87.80530 37245 ft 404 kts 230°
2026-04-19 02:13 28.10773 87.75917 37239 ft 404 kts 230°
2026-04-19 02:13 28.06904 87.71308 37242 ft 403 kts 231°
2026-04-19 02:14 28.03070 87.66747 37225 ft 402 kts 230°
2026-04-19 02:14 27.99214 87.62164 37234 ft 401 kts 230°
2026-04-19 02:15 27.95364 87.57594 37233 ft 402 kts 230°
2026-04-19 02:15 27.91504 87.53014 37220 ft 403 kts 230°
2026-04-19 02:16 27.87673 87.48477 37235 ft 401 kts 230°
2026-04-19 02:16 27.83581 87.44138 37215 ft 409 kts 220°
2026-04-19 02:17 27.78552 87.41005 37209 ft 419 kts 208°
2026-04-19 02:17 27.73132 87.38542 37174 ft 419 kts 208°
2026-04-19 02:18 27.67759 87.36113 37169 ft 420 kts 209°
2026-04-19 02:18 27.62299 87.33605 37184 ft 428 kts 209°
2026-04-19 02:18 27.59548 87.32338 37031 ft 423 kts 209°
2026-04-19 02:19 27.56833 87.31092 37048 ft 420 kts 209°
2026-04-19 02:19 27.51421 87.28601 37043 ft 419 kts 208°
2026-04-19 02:20 27.43439 87.24931 36981 ft 413 kts 209°
2026-04-19 02:20 27.38019 87.22608 36987 ft 430 kts 198°
2026-04-19 02:21 27.34974 87.22434 37040 ft 449 kts 181°
2026-04-19 02:21 27.31877 87.23264 36971 ft 470 kts 163°
2026-04-19 02:21 27.29009 87.25142 37002 ft 488 kts 147°
2026-04-19 02:21 27.26687 87.27999 37002 ft 504 kts 128°
2026-04-19 02:22 27.23002 87.34709 36996 ft 508 kts 125°
2026-04-19 02:22 27.19438 87.41477 36939 ft 499 kts 126°
2026-04-19 02:23 27.15843 87.48122 36882 ft 496 kts 126°
2026-04-19 02:23 27.12205 87.54704 36975 ft 501 kts 126°
2026-04-19 02:24 27.08517 87.61337 36975 ft 507 kts 127°
2026-04-19 02:24 27.04775 87.68071 36951 ft 510 kts 127°
2026-04-19 02:25 27.01050 87.74782 36942 ft 501 kts 127°
2026-04-19 02:25 26.97374 87.81398 36929 ft 500 kts 126°
2026-04-19 02:26 26.93682 87.88020 36932 ft 502 kts 127°
2026-04-19 02:26 26.90005 87.94608 36932 ft 502 kts 126°
2026-04-19 02:27 26.86295 88.01248 36930 ft 504 kts 127°
2026-04-19 02:27 26.84429 88.04582 36698 ft 508 kts 127°
2026-04-19 02:27 26.82548 88.07939 36449 ft 509 kts 127°
2026-04-19 02:28 26.80679 88.11281 36144 ft 504 kts 126°
2026-04-19 02:28 26.78821 88.14598 35936 ft 503 kts 126°
2026-04-19 02:28 26.76955 88.17922 35703 ft 505 kts 126°
2026-04-19 02:28 26.75096 88.21252 35468 ft 505 kts 126°
2026-04-19 02:29 26.73241 88.24597 35213 ft 506 kts 125°
2026-04-19 02:29 26.71722 88.28098 34937 ft 513 kts 108°
2026-04-19 02:29 26.71122 88.32022 34696 ft 514 kts 92°
2026-04-19 02:29 26.71397 88.36002 33913 ft 515 kts 76°
2026-04-19 02:30 26.72555 88.39754 33096 ft 509 kts 59°
2026-04-19 02:30 26.74333 88.43163 32301 ft 507 kts 55°
2026-04-19 02:30 26.76220 88.46496 31440 ft 507 kts 54°
2026-04-19 02:30 26.78130 88.49820 30525 ft 509 kts 55°
2026-04-19 02:31 26.80032 88.53160 29593 ft 510 kts 56°
2026-04-19 02:31 26.81900 88.56500 28886 ft 503 kts 57°
2026-04-19 02:31 26.83702 88.59769 28156 ft 497 kts 57°
2026-04-19 02:31 26.85496 88.63052 27464 ft 491 kts 57°
2026-04-19 02:32 26.87262 88.66295 26813 ft 485 kts 57°
2026-04-19 02:32 26.89005 88.69501 26141 ft 479 kts 57°
2026-04-19 02:32 26.90732 88.72674 25434 ft 475 kts 57°
2026-04-19 02:32 26.92443 88.75817 24754 ft 470 kts 57°
2026-04-19 02:33 26.94141 88.78934 24066 ft 467 kts 57°
2026-04-19 02:33 26.95822 88.82024 23342 ft 463 kts 57°
2026-04-19 02:33 26.97469 88.85051 22776 ft 454 kts 57°
2026-04-19 02:33 26.99063 88.88022 22628 ft 437 kts 58°
2026-04-19 02:34 27.00540 88.90933 22407 ft 422 kts 59°
2026-04-19 02:34 27.01938 88.93766 22237 ft 408 kts 59°
2026-04-19 02:34 27.03282 88.96504 22072 ft 393 kts 59°
2026-04-19 02:34 27.04583 88.99145 21938 ft 381 kts 59°
2026-04-19 02:35 27.05851 89.01704 21768 ft 371 kts 59°
2026-04-19 02:35 27.07091 89.04197 21613 ft 360 kts 59°
2026-04-19 02:35 27.08297 89.06617 21466 ft 351 kts 59°
2026-04-19 02:35 27.09456 89.08943 21323 ft 341 kts 59°
2026-04-19 02:36 27.10599 89.11238 21191 ft 332 kts 58°
2026-04-19 02:36 27.11713 89.13475 21043 ft 325 kts 59°
2026-04-19 02:36 27.12813 89.15684 20708 ft 323 kts 59°
2026-04-19 02:36 27.13904 89.17876 20411 ft 321 kts 59°
2026-04-19 02:37 27.14990 89.20061 20098 ft 319 kts 59°
2026-04-19 02:37 27.16071 89.22236 19785 ft 319 kts 58°
2026-04-19 02:37 27.17303 89.24297 19413 ft 318 kts 49°
2026-04-19 02:37 27.18825 89.26067 19111 ft 314 kts 39°
2026-04-19 02:38 27.20567 89.27478 18771 ft 313 kts 29°
2026-04-19 02:38 27.22517 89.28530 18445 ft 311 kts 19°
2026-04-19 02:38 27.24589 89.29186 18077 ft 309 kts
2026-04-19 02:38 27.26691 89.29563 17716 ft 302 kts
2026-04-19 02:39 27.28732 89.29940 17367 ft 293 kts
2026-04-19 02:39 27.30734 89.30324 16901 ft 290 kts
2026-04-19 02:39 27.32696 89.30677 16579 ft 282 kts
2026-04-19 02:39 27.34615 89.30582 16252 ft 272 kts 346°
2026-04-19 02:40 27.36330 89.29840 15965 ft 259 kts 329°
2026-04-19 02:40 27.37759 89.28732 15665 ft 247 kts 325°
2026-04-19 02:40 27.39148 89.27675 15398 ft 235 kts 326°
2026-04-19 02:40 27.40476 89.26684 15133 ft 223 kts 327°
2026-04-19 02:41 27.41807 89.25884 14855 ft 212 kts 342°
2026-04-19 02:41 27.43237 89.25608 14547 ft 207 kts
2026-04-19 02:41 27.44647 89.25856 14336 ft 205 kts 19°
2026-04-19 02:41 27.45930 89.26537 14116 ft 203 kts 34°
2026-04-19 02:42 27.46971 89.27533 13900 ft 191 kts 49°
2026-04-19 02:42 27.47728 89.28679 13581 ft 184 kts 62°
2026-04-19 02:42 27.48189 89.29982 13050 ft 175 kts 77°
2026-04-19 02:42 27.48325 89.31308 12643 ft 168 kts 91°
2026-04-19 02:43 27.48163 89.32590 12224 ft 163 kts 105°
2026-04-19 02:43 27.47777 89.33777 11822 ft 162 kts 116°
2026-04-19 02:43 27.47272 89.34921 11383 ft 164 kts 115°
2026-04-19 02:43 27.46851 89.36115 10978 ft 163 kts 107°
2026-04-19 02:44 27.46428 89.37298 10587 ft 163 kts 115°
2026-04-19 02:44 27.45849 89.38390 10188 ft 163 kts 125°
2026-04-19 02:44 27.45199 89.39385 9837 ft 155 kts 130°
2026-04-19 02:44 27.44454 89.40251 9595 ft 154 kts 138°
2026-04-19 02:45 27.43628 89.41040 9581 ft 158 kts 140°
2026-04-19 02:45 27.42748 89.41781 9670 ft 157 kts 147°
2026-04-19 02:45 27.41794 89.42417 9892 ft 159 kts 154°
2026-04-19 02:45 27.40833 89.43046 10014 ft 162 kts 149°
2026-04-19 02:46 27.39863 89.43675 9964 ft 161 kts 155°
2026-04-19 02:46 27.38832 89.44156 9862 ft 159 kts 159°
2026-04-19 02:46 27.37798 89.44599 9865 ft 160 kts 160°
2026-04-19 02:46 27.36787 89.45075 9867 ft 158 kts 154°
2026-04-19 02:47 27.35817 89.45685 9919 ft 161 kts 147°
2026-04-19 02:47 27.34930 89.46451 9942 ft 161 kts 137°
2026-04-19 02:47 27.34169 89.47364 9954 ft 160 kts 129°
2026-04-19 02:47 27.33514 89.48387 9944 ft 161 kts 134°
2026-04-19 02:48 27.32530 89.48862 9884 ft 158 kts 187°
2026-04-19 02:48 27.31578 89.48276 9882 ft 161 kts 233°
2026-04-19 02:48 27.31346 89.47078 9835 ft 165 kts 285°
2026-04-19 02:48 27.32008 89.46089 9798 ft 165 kts 331°
2026-04-19 02:49 27.33134 89.45801 9607 ft 168 kts 358°
2026-04-19 02:49 27.34289 89.45695 9380 ft 165 kts 349°
2026-04-19 02:49 27.35357 89.45307 9148 ft 160 kts 336°
2026-04-19 02:49 27.36345 89.44744 8900 ft 160 kts 340°
2026-04-19 02:50 27.37442 89.44416 8502 ft 165 kts 333°
2026-04-19 02:50 27.38412 89.43661 7984 ft 170 kts 332°
2026-04-19 02:50 27.39403 89.43059 8057 ft 157 kts 330°
2026-04-19 02:51 27.41248 89.41795 8293 ft 153 kts 322°
2026-04-19 02:51 27.41983 89.40957 8448 ft 155 kts 308°
2026-04-19 02:51 27.42577 89.39930 8475 ft 159 kts 299°
2026-04-19 02:51 27.43055 89.38801 8623 ft 161 kts 290°
2026-04-19 02:52 27.43409 89.37604 8830 ft 162 kts 287°
2026-04-19 02:52 27.43719 89.36392 9241 ft 159 kts 284°
2026-04-19 02:52 27.44042 89.35203 9691 ft 163 kts 295°
2026-04-19 02:52 27.44743 89.34188 9978 ft 170 kts 323°
2026-04-19 02:53 27.45820 89.33644 9975 ft 170 kts 351°
2026-04-19 02:53 27.46976 89.33806 9978 ft 170 kts 28°
2026-04-19 02:53 27.47857 89.34655 9962 ft 163 kts 56°
2026-04-19 02:53 27.48096 89.35798 10107 ft 156 kts 107°
2026-04-19 02:54 27.47362 89.36694 10161 ft 164 kts 158°
2026-04-19 02:54 27.46379 89.37282 10143 ft 163 kts 140°
2026-04-19 02:54 27.45610 89.38255 9691 ft 169 kts 122°
2026-04-19 02:54 27.45113 89.39440 9164 ft 168 kts 120°
2026-04-19 02:55 27.44364 89.40446 8636 ft 168 kts 139°
2026-04-19 02:55 27.43418 89.41160 8202 ft 163 kts 159°
2026-04-19 02:55 27.42325 89.41433 7832 ft 160 kts 167°
2026-04-19 02:55 27.41289 89.41861 7446 ft 166 kts 149°
2026-04-19 02:56 27.40333 89.42472 7327 ft 136 kts 148°
2026-04-19 02:56 27.39699 89.42874 7319 ft 70 kts 150°
2026-04-19 02:56 27.39525 89.42981 7315 ft 16 kts 158°
2026-04-19 02:56 27.39464 89.42999 7314 ft 2 kts 121°
2026-04-19 02:57 27.39467 89.43009 7313 ft 1 kts 48°
2026-04-19 02:57 27.39477 89.43009 7314 ft 1 kts 353°
2026-04-19 02:57 27.39487 89.43005 7314 ft 2 kts 342°
2026-04-19 02:57 27.39506 89.42995 7315 ft 4 kts 330°
2026-04-19 02:58 27.39537 89.42974 7316 ft 7 kts 330°
2026-04-19 02:58 27.39587 89.42942 7317 ft 9 kts 330°
2026-04-19 02:58 27.39653 89.42900 7318 ft 13 kts 330°
2026-04-19 02:58 27.39740 89.42845 7320 ft 16 kts 330°
2026-04-19 02:59 27.39846 89.42778 7321 ft 19 kts 330°
2026-04-19 02:59 27.39968 89.42700 7322 ft 22 kts 330°
2026-04-19 02:59 27.40098 89.42617 7322 ft 21 kts 330°
2026-04-19 02:59 27.40224 89.42537 7323 ft 20 kts 330°
2026-04-19 03:00 27.40345 89.42461 7327 ft 20 kts 330°
2026-04-19 03:00 27.40461 89.42387 7331 ft 16 kts 330°
2026-04-19 03:00 27.40541 89.42335 7333 ft 11 kts 330°
2026-04-19 03:00 27.40594 89.42299 7334 ft 7 kts 314°
2026-04-19 03:01 27.40591 89.42243 7332 ft 9 kts 239°
2026-04-19 03:01 27.40594 89.42192 7329 ft 7 kts 321°
2026-04-19 03:01 27.40615 89.42169 7329 ft 4 kts 292°
2026-04-19 03:01 27.40607 89.42139 7326 ft 4 kts 238°
2026-04-19 03:02 27.40600 89.42126 7328 ft 0 kts 240°